Location: Helion Bumpstead
(52.0500°N, 0.4000°E)
Time: 20:18:10
(UTC+00:00)

SL-08 RB Rocket - Pass Details

Date: 15 November 2025
Orbit: 632 x 668 km, 97.8° (Epoch: 14 December)

Event Time Altitude Azimuth Distance (km) Brightness Sun altitude
Rises 04:37:38 0° 12° (NNE) 3,007 7.2 -24.5°
Reaches altitude 10° 04:39:53 10° 11° (N) 2,085 6.4 -24.2°
Enters shadow 04:44:22 75° 295° (WNW) 683 3.5 -23.5°
